[[{"header":{"parameterUnit":"m.s-1","parameterCategory":1,"la1":30.2991,"la2":30.254,"lo1":-89.0895,"lo2":-89.0444,"dy":0.0017,"dx":0.0017,"nx":28,"ny":28,"refTime":"2024-10-05T03:00:00:Z","depth":0,"parameterNumber":2,"parameterNumberName":"U-component_of_WINDS"},"data":[0,0,0,0,0,0,0,0,0,0,0,0,0,0,0,0,0,0,0,0,0,0,0,0,0,0,0,0,0,0,0,0,0,0,0,0,0,0,0,0,0,0,0,0,0,0,0,0,0,0,0,0,0,0,0,0,0,0,-5.0344,-5.0344,0,-5.0403,-5.0404,-5.0404,-5.026,-5.0255,-5.0251,-5.0246,-5.0308,-5.0314,-5.032,0,0,0,0,0,0,0,0,0,0,0,0,0,-5.0106,-5.0111,-5.0343,-5.0344,-5.0345,-5.0403,-5.0404,-5.0404,-5.0261,-5.0255,-5.025,-5.0244,-5.0306,-5.0313,-5.032,0,0,0,0,0,0,0,0,0,0,0,0,0,-5.0192,-5.0113,-5.0343,-5.028,-5.0275,-5.0403,-5.0404,-5.0405,-5.0262,-5.0255,-5.0248,-5.0242,-5.0304,-5.0313,-5.0321,-5.0513,0,0,-5.0348,-5.0352,0,0,0,0,0,0,0,0,-5.0187,-5.0201,-5.0289,-5.0285,-5.0279,-5.0317,-5.0342,-5.0441,-5.0264,-5.0267,-5.0246,-5.0238,-5.0317,-5.0324,-5.035,-5.0516,-5.0519,-5.0349,-5.0355,-5.0358,-5.0361,0,0,0,0,0,0,0,-5.0181,-5.0197,-5.0367,-5.029,-5.0285,-5.0249,-5.0254,-5.036,-5.033,-5.0266,-5.0256,-5.0265,-5.0313,-5.0342,-5.0351,-5.052,-5.0349,-5.0357,-5.0362,-5.0366,-5.0844,-5.0851,0,0,0,0,0,0,-5.0183,-5.0193,-5.0365,-5.0369,-5.0215,-5.0259,-5.0264,-5.0312,-5.0328,-5.0324,-5.0271,-5.0258,-5.033,-5.0341,-5.0352,-5.0577,-5.0358,-5.0367,-5.0372,-5.0837,-5.0846,-5.0854,0,0,0,0,0,0,-5.0179,-5.02,-5.0363,-5.0278,-5.0296,-5.027,-5.0325,-5.0317,-5.0346,-5.0331,-5.0325,-5.0306,-5.0325,-5.034,-5.0474,-5.0577,-5.0371,-5.0379,-5.0828,-5.084,-5.085,-5.1028,0,0,0,0,0,0,-5.0173,-5.0199,-5.0272,-5.0281,-5.0301,-5.0484,-5.0331,-5.0323,-5.0361,-5.0345,-5.0363,-5.0359,-5.0321,-5.0461,-5.0483,-5.0585,-5.0386,-5.0819,-5.0833,-5.0846,-5.1013,-5.1044,-5.1071,0,0,0,0,0,-5.0165,-5.032,-5.0276,-5.0298,-5.0391,-5.049,-5.0501,-5.0454,-5.037,-5.0443,-5.0433,-5.0359,-5.0563,-5.0476,-5.0499,-5.0606,-5.0812,-5.0829,-5.0845,-5.1,-5.1038,-5.107,0,0,0,0,0,0,-5.0324,-5.032,-5.0271,-5.0435,-5.0464,-5.0465,-5.0555,-5.0496,-5.0549,-5.0532,-5.0471,-5.0476,-5.0622,-5.0627,-5.0531,-5.0792,-5.0673,-5.0695,-5.0783,-5.0819,-5.0847,-5.0842,-5.0393,0,0,0,0,0,-5.0378,-5.0459,-5.0451,-5.0595,-5.0612,-5.0582,-5.0623,-5.0584,-5.0612,-5.0623,-5.0624,-5.0654,-5.0724,-5.0772,-5.0836,-5.1013,-5.1015,-5.1098,-5.1127,-5.1151,-5.117,-5.1263,-5.13,-5.0909,-5.0909,-5.0908,0,0,-5.0491,-5.0499,-5.0553,-5.0628,-5.0645,-5.073,-5.0593,-5.0688,-5.075,-5.0638,-5.0763,-5.0766,-5.0795,-5.0951,-5.102,-5.096,-5.1279,-5.1172,-5.1191,-5.1197,-5.1284,-5.1321,-5.1354,-5.092,-5.0918,-5.0916,0,0,-5.0739,-5.0754,-5.0875,-5.0896,-5.0924,-5.0903,-5.0932,-5.0943,-5.094,-5.1065,-5.0983,-5.1055,-5.1179,-5.1202,-5.1231,-5.1488,-5.1421,-5.1511,-5.1661,-5.1753,-5.1784,-5.1811,-5.1901,-5.1935,-5.1531,-5.1531,-5.1531,0,-5.0875,-5.0999,-5.0945,-5.1046,-5.108,-5.0982,-5.1105,-5.1128,-5.1176,-5.1203,-5.1135,-5.1287,-5.13,-5.146,-5.1523,-5.1549,-5.158,-5.1508,-5.1784,-5.181,-5.1834,-5.192,-5.1955,-5.1542,-5.1541,-5.1539,-5.1538,0,-5.1164,-5.1251,-5.1346,-5.1395,-5.144,-5.1552,-5.1515,-5.1568,-5.1525,-5.1511,-5.164,-5.1652,-5.1716,-5.1752,-5.1711,-5.1907,-5.1868,-5.1794,-5.1672,-5.1883,-5.1963,-5.1995,-5.1557,-5.1553,-5.155,-5.1547,0,0,-5.1514,-5.1531,-5.1567,-5.1587,-5.1612,-5.1678,-5.1785,-5.1847,-5.1893,-5.1931,-5.2018,-5.2125,-5.2055,-5.2088,-5.2049,-5.213,-5.2331,-5.2044,-5.2044,-5.2096,-5.2546,-5.2602,-5.2641,-5.2288,-5.2294,-5.2299,-5.2543,0,-5.1758,-5.194,-5.1895,-5.2076,-5.2155,-5.2063,-5.2156,-5.2181,-5.2172,-5.2237,-5.2226,-5.2302,-5.2205,-5.2224,-5.23,-5.2291,-5.2421,-5.2273,-5.2368,-5.2372,-5.2362,-5.2682,-5.2741,-5.2971,-5.2574,-5.2579,-5.2583,0,-5.2066,-5.2115,-5.2304,-5.2314,-5.2346,-5.243,-5.2483,-5.2548,-5.2574,-5.2561,-5.2598,-5.2543,-5.2648,-5.2528,-5.2672,-5.2572,-5.2609,-5.2611,-5.2618,-5.2624,-5.249,-5.2696,-5.3044,-5.3078,-5.2632,-5.2628,-5.2625,0,-5.2301,-5.2413,-5.254,-5.2561,-5.2577,-5.2638,-5.2648,-5.2668,-5.2708,-5.2755,-5.2781,-5.284,-5.2872,-5.292,-5.2882,-5.2798,-5.3032,-5.2909,-5.3024,-5.3025,-5.3076,-5.3073,-5.3434,-5.3103,-5.3102,-5.3101,-5.3101,0,-5.2577,-5.2696,-5.2646,-5.2724,-5.2854,-5.2801,-5.2932,-5.2931,-5.295,-5.3026,-5.2951,-5.3024,-5.2971,-5.304,-5.3012,-5.3135,-5.315,-5.3142,-5.3133,-5.3149,-5.3149,-5.3171,-5.3153,-5.3111,-5.3109,-5.3107,-5.3105,0,-5.286,-5.2832,-5.2964,-5.2968,-5.2972,-5.3068,-5.3072,-5.3144,-5.3129,-5.3226,-5.3246,-5.3222,-5.3299,-5.3267,-5.3349,-5.333,-5.3487,-5.3458,-5.3478,-5.347,-5.3586,-5.3576,-5.3972,-5.4021,-5.366,-5.3663,-5.3666,0,-5.3038,-5.3127,-5.3141,-5.3186,-5.3201,-5.3276,-5.3316,-5.3268,-5.3313,-5.335,-5.3419,-5.3489,-5.3543,-5.367,-5.366,-5.3723,-5.3693,-5.3828,-5.3702,-5.3714,-5.3694,-5.3688,-5.3696,-5.3853,-5.3857,-5.386,-5.3863,0,-5.3356,-5.3337,-5.3398,-5.3455,-5.3505,-5.3548,-5.3584,-5.3625,-5.3578,-5.3633,-5.3711,-5.3753,-5.3836,-5.3907,-5.3962,-5.3972,-5.391,-5.3903,-5.3933,-5.3948,-5.3956,-5.3952,-5.3545,-5.3894,-5.3891,-5.3888,-5.3887,-5.3886,-5.359,-5.3665,-5.3686,-5.3757,-5.3778,-5.3814,-5.3882,-5.3875,-5.3938,-5.4002,-5.397,-5.406,-5.4084,-5.4151,-5.417,-5.424,-5.4187,-5.423,-5.4241,-5.4252,-5.4267,-5.3946,-5.425,-5.4249,-5.4248,-5.4247,-5.4247,0,-5.3903,-5.3912,-5.3977,-5.403,-5.4085,-5.4022,-5.4059,-5.4109,-5.419,-5.4217,-5.4271,-5.4361,-5.4429,-5.4425,-5.4488,-5.4544,-5.4518,-5.4563,-5.4557,-5.456,-5.4311,-5.4278,-5.4583,-5.4583,-5.4583,-5.4583,-5.4583,-5.4583,-5.4072,-5.4194,-5.4178,-5.4311,-5.4319,-5.4406,-5.4432,-5.4464,-5.4486,-5.4588,-5.4645,-5.4641,-5.4656,-5.4719,-5.4779,-5.4776,-5.4802,-5.4858,-5.4844,-5.4611,-5.4578,-5.4546,-5.4515,-5.4864,-5.4865,-5.5087,-5.5089,-5.5091]},{"header":{"parameterUnit":"m.s-1","parameterCategory":1,"la1":30.2991,"la2":30.254,"lo1":-89.0895,"lo2":-89.0444,"dy":0.0017,"dx":0.0017,"nx":28,"ny":28,"refTime":"2024-10-05T03:00:00:Z","depth":0,"parameterNumber":3,"parameterNumberName":"V-component_of_WINDS"},"data":[0,0,0,0,0,0,0,0,0,0,0,0,0,0,0,0,0,0,0,0,0,0,0,0,0,0,0,0,0,0,0,0,0,0,0,0,0,0,0,0,0,0,0,0,0,0,0,0,0,0,0,0,0,0,0,0,0,0,-1.2741,-1.2741,0,-1.276,-1.276,-1.2761,-1.2766,-1.2766,-1.2766,-1.2766,-1.2784,-1.2785,-1.2785,0,0,0,0,0,0,0,0,0,0,0,0,0,-1.2705,-1.2706,-1.2741,-1.2741,-1.2741,-1.276,-1.276,-1.2761,-1.2766,-1.2766,-1.2766,-1.2766,-1.2784,-1.2785,-1.2785,0,0,0,0,0,0,0,0,0,0,0,0,0,-1.2722,-1.2706,-1.2741,-1.2746,-1.2747,-1.276,-1.276,-1.2761,-1.2767,-1.2766,-1.2766,-1.2766,-1.2784,-1.2785,-1.2785,-1.2793,0,0,-1.2788,-1.2788,0,0,0,0,0,0,0,0,-1.2721,-1.2723,-1.2745,-1.2746,-1.2747,-1.2761,-1.2754,-1.2772,-1.2767,-1.2759,-1.2766,-1.2766,-1.2776,-1.2778,-1.2782,-1.2794,-1.2795,-1.2788,-1.2789,-1.2789,-1.2789,0,0,0,0,0,0,0,-1.272,-1.2723,-1.2748,-1.2746,-1.2747,-1.2747,-1.2749,-1.2758,-1.2768,-1.276,-1.276,-1.2763,-1.2777,-1.2781,-1.2782,-1.2795,-1.2788,-1.2789,-1.2789,-1.279,-1.2813,-1.2813,0,0,0,0,0,0,-1.2718,-1.2722,-1.2748,-1.2749,-1.2733,-1.2748,-1.275,-1.2756,-1.2768,-1.277,-1.2763,-1.2763,-1.2779,-1.2781,-1.2783,-1.2792,-1.2789,-1.279,-1.279,-1.2813,-1.2813,-1.2813,0,0,0,0,0,0,-1.2717,-1.272,-1.2747,-1.2735,-1.2739,-1.2748,-1.2755,-1.2757,-1.2761,-1.277,-1.2772,-1.2765,-1.2779,-1.2782,-1.279,-1.2793,-1.279,-1.2791,-1.2813,-1.2813,-1.2813,-1.2811,0,0,0,0,0,0,-1.2716,-1.272,-1.2724,-1.2735,-1.2739,-1.2755,-1.2756,-1.2757,-1.2763,-1.2763,-1.2773,-1.2775,-1.2779,-1.2789,-1.2791,-1.2794,-1.2791,-1.2813,-1.2813,-1.2813,-1.2811,-1.2811,-1.2811,0,0,0,0,0,-1.2715,-1.2723,-1.2725,-1.2728,-1.2745,-1.2755,-1.2758,-1.2764,-1.2763,-1.2766,-1.2772,-1.2774,-1.2792,-1.279,-1.2792,-1.2795,-1.2813,-1.2813,-1.2813,-1.2811,-1.2811,-1.2811,0,0,0,0,0,0,-1.2711,-1.2724,-1.2727,-1.2738,-1.2746,-1.2756,-1.2761,-1.2764,-1.2771,-1.2771,-1.2777,-1.278,-1.2788,-1.2792,-1.279,-1.2803,-1.2802,-1.2803,-1.2799,-1.28,-1.28,-1.2798,-1.2792,0,0,0,0,0,-1.2712,-1.272,-1.2731,-1.274,-1.2744,-1.2752,-1.2757,-1.276,-1.2768,-1.2771,-1.2778,-1.2784,-1.2791,-1.2796,-1.2803,-1.2811,-1.2813,-1.2814,-1.2814,-1.2814,-1.2815,-1.2818,-1.2819,-1.2814,-1.2814,-1.2814,0,0,-1.2713,-1.2721,-1.2726,-1.274,-1.2746,-1.2753,-1.2754,-1.2763,-1.2768,-1.2772,-1.2781,-1.2786,-1.2793,-1.2802,-1.2806,-1.2806,-1.2816,-1.2815,-1.2815,-1.2815,-1.2818,-1.2819,-1.2819,-1.2815,-1.2814,-1.2814,0,0,-1.2719,-1.2727,-1.2735,-1.2741,-1.275,-1.2755,-1.2757,-1.2767,-1.277,-1.2779,-1.2782,-1.2787,-1.28,-1.2805,-1.2809,-1.2814,-1.2816,-1.2816,-1.2817,-1.282,-1.282,-1.2821,-1.2822,-1.2822,-1.2817,-1.2817,-1.2817,0,-1.272,-1.2732,-1.2738,-1.2746,-1.2751,-1.2755,-1.2762,-1.2767,-1.2778,-1.2781,-1.2781,-1.2795,-1.2801,-1.281,-1.2811,-1.2815,-1.2816,-1.2815,-1.282,-1.282,-1.2821,-1.2822,-1.2822,-1.2817,-1.2817,-1.2817,-1.2817,0,-1.2731,-1.2739,-1.2744,-1.2754,-1.276,-1.2767,-1.2773,-1.2778,-1.2781,-1.2785,-1.2793,-1.28,-1.2807,-1.281,-1.2813,-1.2818,-1.2818,-1.2819,-1.2819,-1.2821,-1.2822,-1.2823,-1.2817,-1.2817,-1.2817,-1.2817,0,0,-1.2736,-1.2749,-1.2751,-1.2755,-1.2764,-1.277,-1.2777,-1.2785,-1.2788,-1.2795,-1.28,-1.2809,-1.2809,-1.2814,-1.2817,-1.282,-1.2823,-1.282,-1.2821,-1.282,-1.2828,-1.2827,-1.2828,-1.2824,-1.2824,-1.2824,-1.2827,0,-1.2743,-1.2756,-1.2761,-1.2771,-1.2777,-1.278,-1.2786,-1.2792,-1.2796,-1.2801,-1.2805,-1.2811,-1.2812,-1.2814,-1.2817,-1.2822,-1.2824,-1.2821,-1.2827,-1.2828,-1.2825,-1.2828,-1.2828,-1.283,-1.2828,-1.2828,-1.2828,0,-1.2753,-1.2759,-1.277,-1.2777,-1.278,-1.2785,-1.2792,-1.2797,-1.2803,-1.2806,-1.281,-1.2813,-1.2819,-1.2818,-1.2825,-1.2823,-1.2825,-1.2828,-1.2828,-1.2829,-1.2828,-1.2828,-1.2832,-1.2832,-1.2829,-1.2829,-1.2829,0,-1.2754,-1.2766,-1.2773,-1.2777,-1.2786,-1.2789,-1.2793,-1.2799,-1.2803,-1.2808,-1.281,-1.2816,-1.2819,-1.2823,-1.2827,-1.2826,-1.2833,-1.2833,-1.2835,-1.2835,-1.2836,-1.2836,-1.2839,-1.2838,-1.2838,-1.2838,-1.2838,0,-1.2761,-1.2767,-1.2774,-1.2779,-1.2785,-1.279,-1.2796,-1.2799,-1.2804,-1.2809,-1.2812,-1.2816,-1.2821,-1.2825,-1.2828,-1.2833,-1.2834,-1.2836,-1.2836,-1.2835,-1.2835,-1.2837,-1.2837,-1.2838,-1.2838,-1.2838,-1.2838,0,-1.2764,-1.2769,-1.2777,-1.2785,-1.2787,-1.2791,-1.2797,-1.2801,-1.2804,-1.281,-1.2811,-1.2817,-1.2822,-1.2826,-1.2832,-1.2834,-1.2839,-1.284,-1.2837,-1.2837,-1.2838,-1.2838,-1.2843,-1.2843,-1.2842,-1.2842,-1.2842,0,-1.2767,-1.2772,-1.278,-1.2783,-1.2787,-1.2792,-1.2796,-1.2801,-1.2804,-1.281,-1.2813,-1.2818,-1.2823,-1.283,-1.2834,-1.2839,-1.284,-1.2841,-1.2841,-1.2839,-1.2839,-1.2839,-1.2839,-1.2841,-1.2841,-1.2841,-1.2841,0,-1.2773,-1.2775,-1.2781,-1.2787,-1.2791,-1.2796,-1.2801,-1.2803,-1.2808,-1.2812,-1.2817,-1.282,-1.2827,-1.2831,-1.2836,-1.2839,-1.284,-1.2841,-1.2842,-1.2841,-1.2839,-1.2839,-1.2837,-1.2841,-1.2841,-1.2841,-1.2841,-1.2841,-1.2776,-1.278,-1.2786,-1.2791,-1.2795,-1.2799,-1.2803,-1.2807,-1.2811,-1.2817,-1.2819,-1.2824,-1.2828,-1.2835,-1.2838,-1.2841,-1.2841,-1.2842,-1.2842,-1.2842,-1.2842,-1.2838,-1.2842,-1.2842,-1.2842,-1.2842,-1.2842,0,-1.2781,-1.2785,-1.279,-1.2796,-1.28,-1.2801,-1.2806,-1.281,-1.2814,-1.2818,-1.2822,-1.2827,-1.2832,-1.2836,-1.284,-1.2842,-1.2842,-1.2843,-1.2842,-1.2843,-1.2842,-1.2841,-1.2842,-1.2842,-1.2842,-1.2842,-1.2842,-1.2842,-1.2784,-1.279,-1.2793,-1.28,-1.2803,-1.2809,-1.2811,-1.2814,-1.2818,-1.2823,-1.2827,-1.283,-1.2833,-1.2838,-1.2841,-1.2842,-1.2843,-1.2843,-1.2844,-1.2843,-1.2843,-1.2843,-1.2842,-1.2844,-1.2844,-1.2845,-1.2845,-1.2845]}]]